User: anonymous   Login
Location: Bergnerzell
(49.1816°N, 10.2565°E)
Time: 13:33:33
(UTC+00:00)
Language:

Cosmos 2098 Rocket - Orbit

View from above orbital plane
View from above orbital plane
View from above satellite
View from above satellite

Ground track
Ground track

The orbit data is extracted from the following two-line orbital elements,

1 20775U 90078B   24195.86837773  .00015255  00000-0  60360-3 0  9991
2 20775  82.9142  63.3682 0465139 206.5991 151.0665 14.61520590720227
Epoch (UTC): 13 July 2024 20:50:27
Eccentricity: 0.0465139
inclination: 82.9142°
perigee height: 359 km
apogee height: 1017 km
right ascension of ascending node: 63.3682°
argument of perigee: 206.5991°
revolutions per day: 14.61520590
mean anomaly at epoch: 151.0665°
orbit number at epoch: 72022

The dashed part of the orbit path shows where the satellite is in the earth's shadow,  

DLR